This is the latest recevied weather packets stored in our database for station/object IV3CGM-13. If no packets are shown the sender has not sent any weather packets the latest 10 day(s).
| Time | Temp. | Humidity | Pressure | Rain* | Wind** | Luminosity | Snow |
|---|---|---|---|---|---|---|---|
| 1777201362 | 22.22° C | 39% | 1017.6 hPa | 0 mm | - | 845 W/m² | - |
| 1777200674 | 22.22° C | 41% | 1017.6 hPa | 0 mm | - | 838 W/m² | - |
| 1777199987 | 21.67° C | 39% | 1017.5 hPa | 0 mm | - | 834 W/m² | - |
| 1777199300 | 22.22° C | 37% | 1017.5 hPa | 0 mm | - | 823 W/m² | - |
| 1777198563 | 21.67° C | 40% | 1017.4 hPa | 0 mm | - | 808 W/m² | - |
| 1777197862 | 21.67° C | 43% | 1017.4 hPa | 0 mm | - | 790 W/m² | - |
| 1777197174 | 21.11° C | 43% | 1017.4 hPa | 0 mm | - | 777 W/m² | - |
| 1777196487 | 21.67° C | 47% | 1017.4 hPa | 0 mm | - | 764 W/m² | - |
| 1777195799 | 21.11° C | 48% | 1017.4 hPa | 0 mm | - | 746 W/m² | - |
| 1777195062 | 20.56° C | 47% | 1017.4 hPa | 0 mm | - | 722 W/m² | - |
| 1777194361 | 20.56° C | 46% | 1017.4 hPa | 0 mm | - | 710 W/m² | - |
| 1777193674 | 20° C | 49% | 1017.3 hPa | 0 mm | - | 691 W/m² | - |
| 1777192986 | 20° C | 50% | 1017.2 hPa | 0 mm | - | 666 W/m² | - |
| 1777192298 | 20° C | 50% | 1017.2 hPa | 0 mm | - | 642 W/m² | - |
| 1777191562 | 19.44° C | 50% | 1017.1 hPa | 0 mm | - | 613 W/m² | - |
| 1777190861 | 20° C | 50% | 1017.1 hPa | 0 mm | - | 582 W/m² | - |
| 1777190174 | 19.44° C | 46% | 1017 hPa | 0 mm | - | 548 W/m² | - |
| 1777189486 | 18.89° C | 52% | 1016.9 hPa | 0 mm | - | 506 W/m² | - |
| 1777188799 | 18.33° C | 54% | 1016.9 hPa | 0 mm | - | 466 W/m² | - |
| 1777188062 | 17.78° C | 61% | 1016.8 hPa | 0 mm | - | 429 W/m² | - |
| 1777187362 | 17.22° C | 55% | 1016.7 hPa | 0 mm | - | 392 W/m² | - |
| 1777186674 | 17.22° C | 53% | 1016.5 hPa | 0 mm | - | 350 W/m² | - |
| 1777185986 | 17.78° C | 58% | 1016.6 hPa | 0 mm | - | 312 W/m² | - |
| 1777185299 | 16.67° C | 56% | 1016.5 hPa | 0 mm | - | 81 W/m² | - |
| 1777184562 | 17.78° C | 61% | 1016.4 hPa | 0 mm | - | 67 W/m² | - |
* Rain latest hour (hover to see other rain measurements)
** Current wind speed in m/s (hover to see current wind gust speed)